Location: Boullarre
(49.1305°N, 3.0047°E)
Time: 16:25:23
(UTC+00:00)

CZ-4B DEB - Visible Passes

Search period start: 03 October 2023 00:00
Search period end: 13 October 2023 00:00
Orbit: 837 x 859 km, 99.0° (Epoch: 03 October)

Date Brightness Start Highest point End Pass type
(mag) Time Alt. Az. Time Alt. Az. Time Alt. Az.
03 Oct 4.2 18:31:52 10° SSE 18:37:19 87° WSW 18:42:48 10° NNW visible
03 Oct 7.0 20:15:53 10° WSW 20:18:44 14° W 20:21:37 10° NW visible
04 Oct 4.1 18:19:27 10° SSE 18:24:53 76° ENE 18:30:21 10° NNW visible
04 Oct 6.7 20:02:28 10° SW 20:06:07 18° W 20:09:48 10° NW visible
05 Oct 4.2 18:07:07 10° SSE 18:12:28 62° ENE 18:17:51 10° N visible
05 Oct 6.4 19:49:18 10° SW 19:53:31 23° W 19:57:47 10° NW visible
06 Oct 4.4 17:54:52 10° SE 18:00:05 49° ENE 18:05:20 10° N visible
06 Oct 6.1 19:36:18 10° SSW 19:40:57 28° W 19:45:37 10° NW visible
07 Oct 4.7 17:42:41 10° SE 17:47:43 40° ENE 17:52:46 10° N visible
07 Oct 5.7 19:23:26 10° SSW 19:28:24 35° W 19:33:23 10° NNW visible
08 Oct 5.3 19:10:41 10° S 19:15:52 44° W 19:21:05 10° NNW visible
09 Oct 4.9 18:58:01 10° S 19:03:21 56° WSW 19:08:43 10° NNW visible
10 Oct 4.5 18:45:27 10° S 18:50:52 70° WSW 18:56:20 10° NNW visible
10 Oct 7.1 20:31:08 10° W 20:32:31 11° W 20:33:53 10° WNW visible
11 Oct 4.2 18:32:57 10° SSE 18:38:24 86° WSW 18:43:54 10° NNW visible
11 Oct 7.0 20:17:00 10° WSW 20:19:51 14° W 20:22:41 10° NW visible
12 Oct 4.1 18:20:32 10° SSE 18:25:58 77° ENE 18:31:26 10° NNW visible
12 Oct 6.7 20:03:34 10° SW 20:07:12 18° W 20:10:53 10° NW visible
